Location: ??????
(41.3164°N, 22.6615°E)
Time: 09:50:55
(UTC+00:00)

COSMO-SKYMED 1 - Pass Details

Date: 16 October 2021
Orbit: 621 x 623 km, 97.9° (Epoch: 02 December)

Event Time Altitude Azimuth Distance (km) Brightness Sun altitude
Rises 17:01:43 0° 6° (N) 2,914 6.0 -14.8°
Reaches altitude 10° 17:03:58 10° 1° (N) 2,003 5.2 -15.2°
Maximum altitude 17:08:09 47° 288° (WNW) 826 3.6 -16.0°
Drops below altitude 10° 17:12:18 10° 214° (SW) 1,987 5.6 -16.8°
Sets 17:14:32 0° 209° (SSW) 2,888 6.3 -17.2°
